Home > Weather > Teseney > Past weeks

Flag for Eritrea Weather for the Past 2 Weeks in Teseney, Eritrea

Now
68 °F

Clear.


Feels Like: 68 °F
Forecast: 61 / 98 °F
Wind: N/A

Location: Khartoum Airport

Current Time: Feb 12, 2016 at 3:11:26 AM

Latest Report: Feb 12, 2016 at 2:00 AM


Visibility: 10 mi

Pressure: 29.95 "Hg (27.95 "Hg at 593m altitude)

Humidity: 17%

Dew point: 21 °F

Location of TeseneyLocation

Historic Weather in Teseney — Graph

°F

Teseney Temperature Yesterday

Maximum temperature yesterday: 84 °F (at 4:00 PM)
Minimum temperature yesterday: 55 °F (at 7:00 AM)
Average temperature yesterday: 70 °F

High & Low Weather Summary for the Past Weeks

 TemperatureHumidityPressure
High90 °F (Feb 4, 4:00 PM)44% (Jan 30, 7:00 AM)30.18 "Hg (Jan 30, 7:00 AM)
Low52 °F (Jan 28, 6:00 AM)7% (Feb 10, 3:00 PM)29.86 "Hg (Feb 4, 4:00 PM)
Average71 °F21%30.03 "Hg
* Reported Jan 28 1:00 AM — Feb 12 1:00 AM, Teseney, Weather by CustomWeather, © 2016

Note: Actual official high and low records may vary slightly from our data, if they occured in-between our weather recording intervals... More about our weather records

Advertising

Teseney Weather History for the Previous 24 Hours

 ConditionsComfort  
Time TempWeatherWind HumidityBarometerVisibility
1:00 AM
Fri, Feb 12
70 °FClear.13 mph16%29.98 "Hg10 mi
12:00 AM72 °FClear.12 mph17%29.98 "Hg10 mi
11:00 PM
Thu, Feb 11
72 °FClear.12 mph17%30.01 "Hg10 mi
10:00 PM73 °FClear.9 mph14%29.98 "Hg10 mi
9:00 PM77 °FClear.9 mph13%29.98 "Hg10 mi
8:00 PM79 °FClear.14 mph15%29.98 "Hg10 mi
7:00 PM81 °FClear.14 mph14%29.95 "Hg10 mi
6:00 PM82 °FSunny.16 mph14%29.95 "Hg10 mi
5:00 PM84 °FSunny.15 mph12%29.95 "Hg10 mi
4:00 PM84 °FSunny.16 mph12%29.95 "Hg10 mi
3:00 PM82 °FSunny.14 mph14%30.01 "Hg10 mi
2:00 PM81 °FSunny.14 mph14%30.01 "Hg10 mi
1:00 PM79 °FSunny.17 mph15%30.04 "Hg10 mi
12:00 PM73 °FSunny.16 mph14%30.07 "Hg10 mi
11:00 AM68 °FSunny.18 mph13%30.09 "Hg10 mi
10:00 AM64 °FSunny.16 mph15%30.09 "Hg10 mi
9:00 AM59 °FSunny.14 mph23%30.09 "Hg10 mi
8:00 AM55 °FSunny.16 mph26%30.07 "Hg10 mi
7:00 AM55 °FClear.12 mph26%30.07 "Hg10 mi
6:00 AM57 °FClear.10 mph21%30.01 "Hg10 mi
5:00 AM59 °FClear.12 mph14%29.98 "Hg10 mi
4:00 AM59 °FClear.13 mph14%29.98 "Hg10 mi
3:00 AM61 °FClear.15 mph12%30.01 "Hg10 mi
Weather by CustomWeather, © 2016

See weather overviewHow to use our weather pages